CZ-6A DEB, 56686

Orbit data source: Space-Track

CZ-6A DEB, 56686 is space debris in SSO originally from a launch on Fri, 11 Nov 2022 UTC launched from the Taiyaun Space Center, China (TSC). Debris objects in space refer to the collection of defunct objects orbiting the Earth. Examples of debris include non-operational satellites, rocket bodies, and fragments generated from explosions, collisions, or faulty payload assembly.

Loading next visibility...
Identifier
56686, 2022-151AHN
Orbit
SSO
Country
Flag of CNCN / PRC
Related business
Manufacturer
SAST
Mission
Spacecraft
Bus & Motor
Unknown
Mass
Unknown
Launch date (UTC)
2022-11-11 (4 years ago)
Launch vehicle
Unknown
Launch site
Taiyaun Space Center, China (TSC)
Object type
Payload
Rocket body
Debris
Shape & HBR
Unknown shape, 0.1 m
Radar Cross Section
Small (<0.1 m²)

Expand to show TLE details & history
Last TLE update: 2 weeks ago

TLE from 2 weeks ago
0 CZ-6A DEB
1 56686U 22151AHN 26161.72252070  .00000205  00000-0  14020-3 0  9990
2 56686  98.8496 163.2472 0045292   1.7656 358.3667 14.09854638159189
Epoch: 2026-06-10T17:20Z
TLE epoch observation values (Epoch: 2026-06-10T17:20:25.788Z)
Latitude
0.00004°
Longitude
4.06315°
Altitude
829.99 km
Speed
7.455 km/s
True Right ascension
10h 52m 59s
True Declination
0° 00' 00"
Sunlit
Object was in daylight at epoch
Visualization orbit readout
Latitude
Unknown
Longitude
Unknown
Altitude
Unknown
Speed
Unknown
Apparent Right ascension
Unknown
Apparent Declination
Unknown
Sunlit
N/A
Visualization observer readout
Local Sidereal Time
21:52:25
Azimuth
Unknown
Elevation
Unknown
Doppler factor
Unknown
Orbital elements
Apogee altitude
889.818 km
Perigee altitude
824.278 km
Semi-major axis
7,235.185 km
Eccentricity
0.00453
Inclination
98.8496°
RAAN
163.2472°
Arg. of periapsis
1.7656°
True anomaly
358.35182°
Mean anomaly
358.3667°
Eccentric anomaly
358.35927°
Mean motion
3.5267 °/min
Orbital period
102.08 mins
BSTAR
0.0001402
Loading maneuver chart data...
Computing Atmospheric mass density...
Loading historical data...
Loading historical data...
Loading historical data...
Loading historical data...
Loading historical data...
Loading historical data...
Loading historical data...

Documentation

Showing up to 5 results
|